Station TAWM4 - Tawas Point, MI Image indicating link to RSS feed of recent meteorological observations for station TAWM4


Conditions at TAWM4 as of
(4:40 am EDT)
0840 GMT on 06/14/2024:
     

Click on the graph icon in the table below to see a time series plot of the last five days of that observation.

5-day plot - Wind Direction Wind Direction (WDIR): NW ( 310 deg true )
5-day plot - Wind Speed Wind Speed (WSPD): 1.9 kts
5-day plot - Wind Gust Wind Gust (GST): 6.0 kts
5-day plot - Atmospheric Pressure Atmospheric Pressure (PRES):29.90 in
5-day plot - Air Temperature Air Temperature (ATMP): 59.9 °F
5-day plot - Wind Speed at 10 Meters Wind Speed at 10 meters (WSPD10M): 1.9 kts
5-day plot - Wind Speed at 20 Meters Wind Speed at 20 meters (WSPD20M): 1.9 kts
5-day plot -  Wind Speed, Wind Gust and Atmospheric Pressure Combined plot of Wind Speed, Gust, and Air Pressure
Previous observations
TIME
(EDT)
5-day plot - Wind Direction
WDIR
 
5-day plot - Wind Speed
WSPD
kts
5-day plot - Wind Gust
GST
kts
5-day plot - Wave Height
WVHT
ft
5-day plot - Dominant Wave Period
DPD
sec
5-day plot - Average Wave Period
APD
sec
5-day plot - Mean Wave Direction
MWD
 
5-day plot - Atmospheric Pressure
PRES
in
5-day plot - Pressure Tendency
PTDY
in
5-day plot - Air Temperature
ATMP
°F
5-day plot - Water Temperature
WTMP
°F
5-day plot - Dew Point
DEWP
°F
5-day plot - Salinity
SAL
psu
5-day plot - Visibility
VIS
nmi
5-day plot - Tide (above MLLW)
TIDE
ft
2024-06-14 04:30 amWNW 1.9 6.0----29.89- 60.1-----
2024-06-14 04:20 amWNW 4.1 7.0----29.89- 60.4-----
2024-06-14 04:10 amWNW 4.1 7.0----29.89- 60.8-----
2024-06-14 04:00 amWNW 2.9 6.0----29.87-0.01 60.6-----
2024-06-14 03:50 amWNW 2.9 5.1----29.88- 61.0-----
2024-06-14 03:40 am W 2.9 5.1----29.88- 61.0-----
2024-06-14 03:30 amWNW 2.9 6.0----29.87- 61.3-----
2024-06-14 03:20 amWNW 2.9 5.1----29.87- 61.7-----
2024-06-14 03:10 am W 2.9 5.1----29.89- 61.7-----
2024-06-14 03:00 am W 2.9 6.0----29.87+0.00 62.6-----
2024-06-14 02:50 amWNW 4.1 7.0----29.86- 63.1-----
2024-06-14 02:40 amWNW 5.1 8.0----29.88- 63.3-----
2024-06-14 02:30 am W 2.9 6.0----29.88- 62.4-----
2024-06-14 02:20 am W 4.1 6.0----29.88- 63.0-----
2024-06-14 02:10 amWNW 4.1 7.0----29.87- 63.5-----
2024-06-14 02:00 am W 4.1 8.9----29.88+0.03 64.0-----
2024-06-14 01:50 amWNW 6.0 8.9----29.89- 64.4-----
2024-06-14 01:40 am W 5.1 7.0----29.89- 63.5-----
2024-06-14 01:30 am W 4.1 7.0----29.89- 63.7-----
2024-06-14 01:20 am W 5.1 7.0----29.87- 64.2-----
2024-06-14 01:10 amWNW 4.1 7.0----29.88- 64.8-----
2024-06-14 01:00 am W 4.1 8.0----29.88+0.06 65.3-----
2024-06-14 12:50 am NW 4.1 8.0----29.88- 66.2-----
2024-06-14 12:40 am NW 5.1 8.9----29.88- 66.6-----
2024-06-14 12:30 amWNW 4.1 8.0----29.88- 66.6-----
2024-06-14 12:20 am W 5.1 7.0----29.88- 66.4-----
2024-06-14 12:10 amWNW 5.1 7.0----29.88- 66.7-----
2024-06-14 12:00 am W 4.1 9.9----29.87+0.10 67.5-----
2024-06-13 11:50 pmWNW 4.1 8.9----29.87- 68.5-----
2024-06-13 11:40 pm NW 5.1 12.0----29.86- 69.3-----
2024-06-13 11:30 pm NW 5.1 9.9----29.86- 68.7-----
2024-06-13 11:20 pmWNW 5.1 8.0----29.85- 69.3-----
2024-06-13 11:10 pm NW 2.9 8.9----29.85- 69.6-----
2024-06-13 11:00 pm NW 2.9 11.1----29.85+0.11 70.3-----
2024-06-13 10:50 pmNNW 8.9 15.0----29.85- 71.2-----
2024-06-13 10:40 pmNNW 7.0 12.0----29.84- 71.6-----
2024-06-13 10:30 pmNNW 8.0 11.1----29.84- 72.1-----
2024-06-13 10:20 pm N 6.0 9.9----29.82- 72.3-----
2024-06-13 10:10 pmNNW 6.0 12.0----29.82- 72.9-----
2024-06-13 10:00 pmNNW 8.0 12.0----29.82+0.08 72.9-----
2024-06-13 09:50 pmNNW 6.0 17.1----29.80- 73.8-----
2024-06-13 09:40 pm N 5.1 9.9----29.80- 74.5-----
2024-06-13 09:30 pmNNW 7.0 12.0----29.80- 74.8-----
2024-06-13 09:20 pmNNW 7.0 13.0----29.79- 75.2-----
2024-06-13 09:10 pmNNW 9.9 15.9----29.79- 75.7-----
2024-06-13 09:00 pmNNW 8.0 14.0----29.77+0.05 76.3-----
2024-06-13 08:50 pmNNW 7.0 11.1----29.77- 75.7-----
2024-06-13 08:40 pm NW 5.1 14.0----29.77- 74.8-----
2024-06-13 08:30 pm W 8.0 13.0----29.75- 76.3-----
2024-06-13 08:20 pm W 9.9 14.0----29.74- 75.7-----
2024-06-13 08:10 pm W 9.9 18.1----29.75- 78.1-----
2024-06-13 08:00 pm W 8.9 15.9----29.74+0.03 78.3-----
2024-06-13 07:50 pm W 8.0 13.0----29.73- 78.4-----
2024-06-13 07:40 pm W 7.0 22.0----29.75- 79.3-----
2024-06-13 07:30 pm W 14.0 19.0----29.75- 79.9-----
2024-06-13 07:20 pm W 8.9 17.1----29.73- 77.5-----
2024-06-13 07:10 pm W 8.9 17.1----29.74- 78.1-----
2024-06-13 07:00 pmWSW 7.0 14.0----29.74+0.05 77.4-----
2024-06-13 06:50 pmWSW 8.9 15.0----29.72- 77.2-----
2024-06-13 06:40 pm W 8.0 15.9----29.73- 78.4-----
2024-06-13 06:30 pmWSW 9.9 17.1----29.71- 78.8-----
2024-06-13 06:20 pmWSW 11.1 18.1----29.72- 79.5-----
2024-06-13 06:10 pm W 12.0 21.0----29.71- 79.5-----
2024-06-13 06:00 pmWSW 13.0 20.0----29.72+0.01 79.3-----
2024-06-13 05:50 pmWSW 9.9 17.1----29.72- 79.9-----
2024-06-13 05:40 pm W 12.0 24.1----29.71- 79.3-----
2024-06-13 05:30 pmWSW 12.0 22.0----29.72- 79.2-----
2024-06-13 05:20 pm W 11.1 26.0----29.71- 79.5-----
2024-06-13 05:10 pmWSW 12.0 22.0----29.73- 80.4-----
2024-06-13 05:00 pmWSW 9.9 17.1----29.71-0.04 79.5-----
2024-06-13 04:50 pmWSW 8.0 15.9----29.70- 79.2-----
2024-06-13 04:40 pm SW 9.9 21.0----29.70- 80.8-----
2024-06-13 04:30 pm SW 12.0 22.0----29.69- 82.6-----
2024-06-13 04:20 pmWSW 12.0 20.0----29.70- 82.0-----
2024-06-13 04:10 pm SW 12.0 19.0----29.70- 83.5-----
2024-06-13 04:00 pmWSW 8.0 20.0----29.69-0.06 82.2-----
2024-06-13 03:50 pm SW 12.0 18.1----29.70- 84.2-----
2024-06-13 03:40 pm SW 9.9 20.0----29.71- 82.8-----
2024-06-13 03:30 pm SW 13.0 24.1----29.71- 84.4-----
2024-06-13 03:20 pm SW 9.9 21.0----29.70- 83.1-----
2024-06-13 03:10 pm SW 14.0 20.0----29.72- 83.5-----
2024-06-13 03:00 pm SW 14.0 21.0----29.71-0.06 83.7-----
2024-06-13 02:50 pm SW 12.0 21.0----29.71- 81.9-----
2024-06-13 02:40 pm SW 9.9 15.9----29.73- 80.6-----
2024-06-13 02:30 pmSSW 6.0 12.0----29.74- 76.1-----
2024-06-13 02:20 pmSSW 8.0 13.0----29.73- 76.1-----
2024-06-13 02:10 pmSSW 8.0 14.0----29.73- 75.7-----
2024-06-13 02:00 pmSSW 7.0 15.0----29.75-0.01 76.5-----
2024-06-13 01:50 pmSSW 11.1 15.0----29.75- 74.7-----
2024-06-13 01:40 pmSSW 7.0 9.9----29.74- 74.8-----
2024-06-13 01:30 pm S 5.1 8.9----29.74- 74.8-----
2024-06-13 01:20 pm S 4.1 7.0----29.76- 73.8-----
2024-06-13 01:10 pm S 2.9 7.0----29.76- 70.5-----
2024-06-13 01:00 pm S 2.9 5.1----29.75-0.02 71.6-----
2024-06-13 12:50 pm- 0.0 6.0----29.76- 73.9-----
2024-06-13 12:40 pm S 4.1 7.0----29.78- 74.3-----
2024-06-13 12:30 pm S 2.9 7.0----29.77- 71.8-----
2024-06-13 12:20 pm- 0.0 5.1----29.75- 71.1-----
2024-06-13 12:10 pm- 0.0 8.0----29.75- 74.8-----
2024-06-13 12:00 pmSSW 5.1 8.0----29.77-0.04 75.2-----
2024-06-13 11:50 amSSW 6.0 8.9----29.77- 74.7-----
2024-06-13 11:40 amSSW 6.0 8.9----29.76- 74.3-----
2024-06-13 11:30 am S 4.1 14.0----29.78- 73.4-----
2024-06-13 11:20 amSSW 8.0 12.0----29.75- 73.4-----
2024-06-13 11:10 amSSW 7.0 14.0----29.77- 71.8-----
2024-06-13 11:00 amSSW 7.0 12.0----29.76-0.04 71.1-----
2024-06-13 10:50 amSSW 7.0 9.9----29.75- 72.0-----
2024-06-13 10:40 amSSW 4.1 8.9----29.76- 70.5-----
2024-06-13 10:30 amSSW 5.1 9.9----29.76- 69.3-----
2024-06-13 10:20 amSSW 6.0 9.9----29.77- 67.6-----
2024-06-13 10:10 amSSW 2.9 8.9----29.77- 68.4-----
2024-06-13 10:00 amSSW 5.1 9.9----29.77-0.03 69.3-----
2024-06-13 09:50 am SW 8.0 13.0----29.77- 70.2-----
2024-06-13 09:40 am SW 9.9 15.9----29.78- 70.0-----
2024-06-13 09:30 amSSW 7.0 15.0----29.78- 69.3-----
2024-06-13 09:20 am SW 8.9 14.0----29.79- 69.3-----
2024-06-13 09:10 am SW 7.0 13.0----29.81- 67.8-----
2024-06-13 09:00 am SW 7.0 9.9----29.81+0.02 64.6-----
2024-06-13 08:50 amSSW 5.1 9.9----29.81- 65.5-----
2024-06-13 08:40 amSSW 6.0 9.9----29.81- 65.8-----
2024-06-13 08:30 amSSW 6.0 11.1----29.79- 66.0-----
2024-06-13 08:20 am SW 5.1 8.0----29.79- 65.5-----
2024-06-13 08:10 amSSW 4.1 8.9----29.79- 66.2-----
2024-06-13 08:00 amWSW 5.1 8.0----29.80+0.02 67.1-----
2024-06-13 07:50 am SW 4.1 8.0----29.79- 67.3-----
2024-06-13 07:40 am SW 5.1 8.9----29.79- 67.3-----
2024-06-13 07:30 am SW 5.1 9.9----29.78- 67.5-----
2024-06-13 07:20 am SW 6.0 9.9----29.78- 67.3-----
2024-06-13 07:10 amWSW 6.0 9.9----29.80- 66.0-----
2024-06-13 07:00 amWSW 5.1 8.9----29.80+0.01 65.8-----
2024-06-13 06:50 amWSW 4.1 8.9----29.77- 66.6-----
2024-06-13 06:40 am SW 5.1 9.9----29.77- 65.8-----
2024-06-13 06:30 am SW 8.0 12.0----29.79- 66.4-----
2024-06-13 06:20 amWSW 6.0 12.0----29.79- 66.9-----
2024-06-13 06:10 am SW 7.0 11.1----29.78- 66.9-----
2024-06-13 06:00 amWSW 5.1 9.9----29.79-0.01 65.3-----
2024-06-13 05:50 amWSW 2.9 9.9----29.80- 65.5-----
2024-06-13 05:40 am SW 6.0 9.9----29.79- 63.9-----
2024-06-13 05:30 amSSW 5.1 8.9----29.78- 62.1-----
2024-06-13 05:20 amSSW 4.1 8.9----29.78- 62.4-----
2024-06-13 05:10 amSSW 5.1 8.9----29.79- 63.0-----
2024-06-13 05:00 amSSW 5.1 9.9----29.78-0.03 63.1-----
2024-06-13 04:50 amSSW 6.0 9.9----29.78- 62.8-----